Home   Weather   Herat   Past weeks

Flag for Afghanistan Past Weather in Herat, Afghanistan — Yesterday and Last 2 Weeks

Now
37 °F

Clear.


Feels Like: 37 °F
Forecast: 31 / 46 °F
Wind: No wind

Location: Herat Airport

Current Time: Jan 16, 2017 at 7:40:07 pm

Latest Report: Jan 16, 2017 at 6:25 pm


Visibility: 10 mi

Pressure: 30.18 "Hg (26.88 "Hg at 937m altitude)

Humidity: 52%

Dew Point: 21 °F

Location of HeratLocation

Past Weather in Herat — Graph

°F

Herat Temperature Yesterday

Maximum temperature yesterday: 37 °F (at 1:25 pm)
Minimum temperature yesterday: 27 °F (at 8:25 pm)
Average temperature yesterday: 32 °F

High & Low Weather Summary for the Past Weeks

 TemperatureHumidityPressure
High64 °F (Jan 2, 11:25 am)100% (Jan 5, 2:25 pm)30.30 "Hg (Jan 5, 2:25 pm)
Low23 °F (Jan 7, 7:25 am)9% (Jan 7, 3:29 pm)29.86 "Hg (Jan 14, 5:55 am)
Average45 °F52%30.11 "Hg
* Reported Jan 1 6:25 pm — Jan 16 6:25 pm, Herat, Weather by CustomWeather, © 2017

Note: Actual official high and low records may vary slightly from our data, if they occured in-between our weather recording intervals... More about our weather records

Advertising

Herat Weather History for the Previous 24 Hours

Scroll right to see more
 ConditionsComfort  
Time TempWeatherWind HumidityBarometerVisibility
6:25 pm
Mon, Jan 16
37 °FClear.No wind52%30.18 "Hg10 mi
5:29 pm37 °FSunny.6 mph52%30.15 "Hg10 mi
4:25 pm39 °FSunny.3 mph48%30.15 "Hg10 mi
3:25 pm39 °FSunny.1 mph48%30.15 "Hg10 mi
2:25 pm39 °FSunny.3 mph45%30.15 "Hg10 mi
1:25 pm37 °FSunny.1 mph48%30.12 "Hg10 mi
12:25 pm36 °FScattered clouds.1 mph52%30.15 "HgN/A
11:25 am32 °FPartly sunny.No wind60%30.18 "HgN/A
10:25 am28 °FPartly sunny.No wind69%30.21 "HgN/A
9:25 am25 °FPartly sunny.No wind69%30.21 "HgN/A
8:25 am23 °FScattered clouds.2 mph80%30.18 "HgN/A
7:25 am23 °FClear.No wind80%30.18 "Hg10 mi
6:25 am25 °FClear.2 mph80%30.18 "Hg10 mi
5:55 am23 °FClear.2 mph80%30.18 "Hg10 mi
9:25 pm
Sun, Jan 15
27 °FClear.5 mph80%30.24 "Hg10 mi
8:25 pm27 °FClear.7 mph80%30.21 "Hg10 mi
7:25 pm30 °FClear.No wind69%30.21 "Hg10 mi
Weather by CustomWeather, © 2017

See weather overviewHow to use our weather pages